EW4239 Weather Reports


time (UTC)temp
C
wind
direction
speed
KPH
gust
KPH
rain 1hr
cm
rain 24hr
cm
rain mn
cm
humidity
%
barometer
mb
20260508024549 9 0 0.0 1.6 0.00 0.00 0.00 93 1014.5
20260508023048 8 0 0.0 0.0 0.00 0.00 0.00 93 1014.5
20260508021543 8 0 0.0 1.6 0.00 0.00 0.00 93 1014.6
20260508020045 8 0 0.0 3.2 0.00 0.00 0.00 93 1014.5
20260508014544 9 0 0.0 4.8 0.00 0.00 0.00 93 1014.6
20260508013051 9 236 0.0 1.6 0.00 0.00 0.00 93 1014.5
20260508011554 9 236 0.0 4.8 0.00 0.00 0.00 93 1014.7
20260508010045 9 299 0.0 4.8 0.00 0.00 0.00 92 1014.7
20260508004545 9 11 0.0 1.6 0.00 0.00 0.00 91 1014.8
20260508003058 9 25 0.0 1.6 0.00 0.00 0.00 91 1014.9
20260508001548 9 24 0.0 4.8 0.00 0.00 0.00 91 1014.9
20260508000044 9 0 0.0 1.6 0.00 0.00 0.00 92 1015.0
20260507234548 9 0 0.0 1.6 0.00 0.00 0.00 92 1015.1
20260507233045 10 0 0.0 1.6 0.00 0.00 0.00 91 1015.1
20260507231557 10 0 0.0 1.6 0.00 0.00 0.00 90 1015.2
20260507230047 10 0 0.0 3.2 0.00 0.00 0.00 88 1015.2
20260507224559 10 269 0.0 3.2 0.00 0.00 0.00 85 1015.3
20260507223050 9 0 0.0 1.6 0.00 0.00 0.00 84 1015.3
20260507221548 9 0 0.0 1.6 0.00 0.00 0.00 83 1015.4
20260507220048 9 0 0.0 0.0 0.00 0.00 0.00 82 1015.3
20260507214553 9 0 0.0 0.0 0.00 0.00 0.00 82 1015.5
20260507213049 9 0 0.0 1.6 0.00 0.00 0.00 82 1015.4
20260507211546 10 0 0.0 1.6 0.00 0.00 0.00 82 1015.3
20260507210114 10 0 0.0 1.6 0.00 0.00 0.00 82 1015.2
20260507204556 10 0 0.0 0.0 0.00 0.00 0.00 82 1015.3
20260507203051 10 0 0.0 0.0 0.00 0.00 0.00 82 1015.1
20260507201547 10 0 0.0 0.0 0.00 0.00 0.00 81 1015.0
20260507200104 10 0 0.0 0.0 0.00 0.00 0.00 82 1014.8
20260507194550 10 0 0.0 0.0 0.00 0.00 0.00 82 1014.6
20260507193110 10 0 0.0 1.6 0.00 0.00 0.00 81 1014.6
20260507191559 10 293 0.0 1.6 0.00 0.00 0.00 81 1014.6
20260507190052 11 0 0.0 1.6 0.00 0.00 0.00 80 1014.5
20260507184554 11 0 0.0 1.6 0.00 0.00 0.00 79 1014.5
20260507183100 11 0 0.0 1.6 0.00 0.00 0.00 80 1014.5
20260507181558 11 0 0.0 3.2 0.00 0.00 0.00 79 1014.4
20260507180057 11 283 0.0 3.2 0.00 0.00 0.00 78 1014.6
20260507174545 12 274 0.0 3.2 0.00 0.00 0.00 78 1014.6
20260507173107 12 288 1.6 3.2 0.00 0.00 0.00 79 1014.6
20260507171551 12 277 0.0 3.2 0.00 0.00 0.00 79 1014.5
20260507170054 12 217 1.6 4.8 0.00 0.00 0.00 76 1014.6
20260507164557 12 253 0.0 8.0 0.00 0.00 0.00 71 1014.6
20260507163051 12 246 3.2 9.7 0.00 0.00 0.00 70 1014.5
20260507161606 13 271 3.2 12.9 0.00 0.00 0.00 70 1014.6
20260507160104 14 297 1.6 6.4 0.00 0.00 0.00 66 1014.7
20260507154551 13 284 3.2 16.1 0.00 0.00 0.00 66 1014.7
20260507153045 15 256 3.2 9.7 0.00 0.00 0.00 62 1014.6
20260507151547 14 258 4.8 14.5 0.00 0.00 0.00 68 1014.6
20260507150047 14 248 3.2 11.3 0.00 0.00 0.00 64 1014.8
20260507144559 13 303 6.4 16.1 0.00 0.00 0.00 68 1015.0
20260507143059 13 276 4.8 12.9 0.00 0.00 0.00 70 1015.1
20260507141610 14 327 3.2 11.3 0.00 0.00 0.00 65 1015.3
20260507140057 14 262 4.8 12.9 0.00 0.00 0.00 66 1015.3
20260507134553 14 257 1.6 16.1 0.00 0.00 0.00 67 1015.3
20260507133054 13 285 3.2 9.7 0.00 0.00 0.00 68 1015.3
20260507131557 13 285 4.8 12.9 0.00 0.00 0.00 66 1015.3
20260507130052 13 306 3.2 11.3 0.00 0.00 0.00 66 1015.4
20260507124554 13 289 4.8 11.3 0.00 0.00 0.00 69 1015.3
20260507123051 13 259 4.8 14.5 0.00 0.00 0.00 69 1015.6
20260507121550 13 233 4.8 16.1 0.00 0.00 0.00 68 1015.6
20260507120050 13 281 3.2 12.9 0.00 0.00 0.00 66 1015.6
20260507114557 13 254 4.8 11.3 0.00 0.00 0.00 72 1015.6
20260507113044 13 240 1.6 14.5 0.00 0.00 0.00 72 1015.5
20260507111558 13 177 4.8 12.9 0.00 0.00 0.00 73 1015.5
20260507110050 13 283 4.8 12.9 0.00 0.00 0.00 76 1015.5
20260507104551 13 295 6.4 14.5 0.00 0.00 0.00 81 1015.6
20260507103045 13 214 1.6 11.3 0.00 0.00 0.00 80 1015.5
20260507101601 12 302 4.8 12.9 0.00 0.00 0.00 80 1015.5
20260507100047 12 257 3.2 12.9 0.00 0.00 0.00 81 1015.6
20260507094545 12 257 4.8 9.7 0.00 0.00 0.00 84 1015.4
20260507093048 12 354 3.2 11.3 0.00 0.00 0.00 84 1015.3
20260507091548 12 300 3.2 11.3 0.00 0.00 0.00 87 1015.4
20260507090048 11 186 1.6 6.4 0.00 0.00 0.00 91 1015.3
20260507084547 11 265 3.2 8.0 0.00 0.05 0.00 92 1015.4
20260507083047 10 297 0.0 4.8 0.00 0.05 0.00 92 1015.5
20260507081550 10 276 1.6 4.8 0.00 0.05 0.00 92 1015.4
20260507080050 10 292 0.0 6.4 0.00 0.05 0.00 91 1015.4
20260507074555 10 267 0.0 4.8 0.00 0.08 0.00 93 1015.4
20260507073048 9 316 0.0 3.2 0.00 0.08 0.00 93 1015.3
20260507071546 9 294 0.0 3.2 0.00 0.08 0.00 94 1015.1
20260507070049 8 332 0.0 1.6 0.00 0.08 0.00 94 1015.0
20260507064602 8 0 0.0 3.2 0.00 0.08 0.00 94 1014.9
20260507063053 8 0 0.0 0.0 0.00 0.08 0.00 95 1014.8
20260507061546 7 0 0.0 0.0 0.00 0.08 0.00 95 1014.8
20260507060051 7 0 0.0 0.0 0.00 0.08 0.00 95 1014.7
20260507054545 7 0 0.0 0.0 0.00 0.08 0.00 95 1014.7
20260507053055 7 0 0.0 0.0 0.00 0.08 0.00 95 1014.7
20260507051551 6 0 0.0 0.0 0.00 0.08 0.00 95 1014.7
20260507050053 6 0 0.0 0.0 0.00 0.08 0.00 95 1014.7
20260507044547 6 0 0.0 0.0 0.00 0.08 0.00 94 1014.8
20260507043059 6 0 0.0 0.0 0.00 0.08 0.00 94 1014.6
20260507041553 6 0 0.0 0.0 0.00 0.08 0.00 94 1014.5
20260507040056 6 0 0.0 0.0 0.00 0.08 0.00 93 1014.5
20260507034555 6 0 0.0 0.0 0.00 0.08 0.00 93 1014.5
20260507033050 6 0 0.0 0.0 0.00 0.08 0.00 92 1014.4
20260507031552 6 0 0.0 0.0 0.00 0.08 0.00 91 1014.3
20260507030049 7 0 0.0 1.6 0.00 0.08 0.00 90 1014.2